Time,TemperatureF,DewpointF,PressureIn,WindDirection,WindDirectionDegrees,WindSpeedMPH,WindSpeedGustMPH,Humidity,HourlyPrecipIn,Conditions,Clouds,dailyrainin,SoftwareType,DateUTC
2013-03-06 00:10:00,42.6,42.0,29.91,North,349,3.0,4.0,96,0.13,,,0.02,weatherlink.com 1.10,2013-03-06 08:10:00,
2013-03-06 00:25:00,42.6,42.0,29.91,NW,324,1.0,3.0,96,0.12,,,0.04,weatherlink.com 1.10,2013-03-06 08:25:00,
2013-03-06 00:40:00,42.7,42.0,29.90,NW,325,1.0,2.0,96,0.12,,,0.07,weatherlink.com 1.10,2013-03-06 08:40:00,
2013-03-06 00:55:00,42.9,42.0,29.91,ESE,123,1.0,2.0,96,0.12,,,0.11,weatherlink.com 1.10,2013-03-06 08:55:00,
2013-03-06 01:10:00,43.2,42.0,29.90,ENE,77,0.0,1.0,97,0.15,,,0.17,weatherlink.com 1.10,2013-03-06 09:10:00,
2013-03-06 01:25:00,43.5,43.0,29.90,ENE,60,0.0,2.0,97,0.18,,,0.22,weatherlink.com 1.10,2013-03-06 09:25:00,
2013-03-06 01:40:00,44.8,44.0,29.89,ENE,70,2.0,4.0,97,0.18,,,0.26,weatherlink.com 1.10,2013-03-06 09:40:00,
2013-03-06 01:55:00,45.6,45.0,29.90,NNE,13,3.0,5.0,97,0.18,,,0.29,weatherlink.com 1.10,2013-03-06 09:55:00,
2013-03-06 02:10:00,46.1,45.0,29.89,NNE,15,2.0,4.0,97,0.14,,,0.31,weatherlink.com 1.10,2013-03-06 10:10:00,
2013-03-06 02:25:00,46.4,46.0,29.90,NNW,332,3.0,3.0,97,0.12,,,0.35,weatherlink.com 1.10,2013-03-06 10:25:00,
2013-03-06 02:40:00,46.6,46.0,29.91,NNE,14,0.0,4.0,97,0.12,,,0.38,weatherlink.com 1.10,2013-03-06 10:40:00,
2013-03-06 02:55:00,46.7,46.0,29.91,NNE,23,0.0,1.0,97,0.11,,,0.40,weatherlink.com 1.10,2013-03-06 10:55:00,
2013-03-06 03:10:00,46.9,46.0,29.92,NE,51,0.0,4.0,97,0.12,,,0.43,weatherlink.com 1.10,2013-03-06 11:10:00,
2013-03-06 03:25:00,46.4,46.0,29.92,NNE,27,1.0,4.0,97,0.10,,,0.45,weatherlink.com 1.10,2013-03-06 11:25:00,
2013-03-06 03:40:00,45.8,45.0,29.92,NNE,18,0.0,2.0,97,0.08,,,0.46,weatherlink.com 1.10,2013-03-06 11:40:00,
2013-03-06 03:55:00,45.7,45.0,29.92,NE,55,0.0,1.0,97,0.08,,,0.48,weatherlink.com 1.10,2013-03-06 11:55:00,
2013-03-06 04:10:00,45.8,45.0,29.92,ENE,71,0.0,1.0,97,0.05,,,0.48,weatherlink.com 1.10,2013-03-06 12:10:00,
2013-03-06 04:25:00,45.9,45.0,29.93,NE,51,0.0,2.0,97,0.04,,,0.49,weatherlink.com 1.10,2013-03-06 12:25:00,
2013-03-06 04:40:00,46.4,46.0,29.95,NW,325,3.0,5.0,97,0.04,,,0.50,weatherlink.com 1.10,2013-03-06 12:40:00,
2013-03-06 04:55:00,45.9,45.0,29.95,NE,51,0.0,1.0,97,0.02,,,0.50,weatherlink.com 1.10,2013-03-06 12:55:00,
2013-03-06 05:10:00,45.6,45.0,29.96,NE,51,0.0,1.0,97,0.02,,,0.50,weatherlink.com 1.10,2013-03-06 13:10:00,
2013-03-06 05:25:00,45.3,45.0,29.96,NE,51,0.0,0.0,97,0.01,,,0.50,weatherlink.com 1.10,2013-03-06 13:25:00,
2013-03-06 05:40:00,45.2,44.0,29.97,NE,49,0.0,1.0,97,0.01,,,0.51,weatherlink.com 1.10,2013-03-06 13:40:00,
2013-03-06 05:55:00,45.1,44.0,29.97,NE,42,0.0,1.0,97,0.01,,,0.51,weatherlink.com 1.10,2013-03-06 13:55:00,
2013-03-06 06:10:00,44.7,44.0,29.97,WSW,257,1.0,2.0,97,0.01,,,0.51,weatherlink.com 1.10,2013-03-06 14:10:00,
2013-03-06 06:25:00,44.0,43.0,29.98,SW,214,0.0,1.0,97,0.01,,,0.51,weatherlink.com 1.10,2013-03-06 14:25:00,
2013-03-06 06:40:00,43.4,43.0,29.98,SSW,212,0.0,0.0,97,0.00,,,0.51,weatherlink.com 1.10,2013-03-06 14:40:00,
2013-03-06 06:56:00,43.2,42.0,29.99,SSW,212,0.0,1.0,97,0.00,,,0.51,weatherlink.com 1.10,2013-03-06 14:56:00,
2013-03-06 07:11:00,42.8,42.0,30.00,SSW,212,0.0,1.0,97,0.00,,,0.51,weatherlink.com 1.10,2013-03-06 15:11:00,
2013-03-06 07:26:00,42.7,42.0,30.01,East,93,0.0,1.0,97,0.00,,,0.51,weatherlink.com 1.10,2013-03-06 15:26:00,
2013-03-06 07:41:00,42.9,42.0,30.01,East,94,0.0,0.0,97,0.00,,,0.51,weatherlink.com 1.10,2013-03-06 15:41:00,
2013-03-06 07:56:00,43.4,43.0,30.01,East,93,0.0,1.0,97,0.00,,,0.51,weatherlink.com 1.10,2013-03-06 15:56:00,
2013-03-06 08:11:00,43.9,43.0,30.02,East,93,0.0,0.0,97,0.00,,,0.51,weatherlink.com 1.10,2013-03-06 16:11:00,
2013-03-06 08:26:00,44.5,44.0,30.03,East,93,0.0,0.0,98,0.00,,,0.51,weatherlink.com 1.10,2013-03-06 16:26:00,
2013-03-06 08:41:00,45.0,45.0,30.03,East,94,0.0,0.0,98,0.00,,,0.51,weatherlink.com 1.10,2013-03-06 16:41:00,
2013-03-06 08:56:00,45.5,45.0,30.04,East,94,0.0,0.0,98,0.01,,,0.52,weatherlink.com 1.10,2013-03-06 16:56:00,
2013-03-06 09:11:00,45.9,45.0,30.04,East,93,0.0,1.0,98,0.01,,,0.52,weatherlink.com 1.10,2013-03-06 17:11:00,
2013-03-06 09:26:00,45.9,45.0,30.05,East,93,0.0,1.0,98,0.01,,,0.52,weatherlink.com 1.10,2013-03-06 17:26:00,
2013-03-06 09:56:00,46.4,46.0,30.06,East,88,0.0,1.0,97,0.00,,,0.52,weatherlink.com 1.10,2013-03-06 17:56:00,
2013-03-06 10:11:00,46.7,46.0,30.06,East,86,0.0,1.0,98,0.00,,,0.52,weatherlink.com 1.10,2013-03-06 18:11:00,
2013-03-06 10:26:00,46.9,46.0,30.06,East,86,0.0,0.0,97,0.00,,,0.52,weatherlink.com 1.10,2013-03-06 18:26:00,
2013-03-06 10:41:00,46.6,46.0,30.06,East,88,0.0,1.0,97,0.00,,,0.52,weatherlink.com 1.10,2013-03-06 18:41:00,
2013-03-06 10:56:00,47.2,46.0,30.07,East,88,0.0,0.0,97,0.00,,,0.52,weatherlink.com 1.10,2013-03-06 18:56:00,
2013-03-06 11:11:00,47.5,47.0,30.07,East,86,1.0,1.0,97,0.00,,,0.52,weatherlink.com 1.10,2013-03-06 19:11:00,
2013-03-06 11:41:00,48.2,47.0,30.06,NW,311,0.0,2.0,97,0.00,,,0.52,weatherlink.com 1.10,2013-03-06 19:41:00,
2013-03-06 11:56:00,47.7,47.0,30.06,North,354,0.0,1.0,96,0.00,,,0.52,weatherlink.com 1.10,2013-03-06 19:56:00,
2013-03-06 12:11:00,48.7,47.0,30.05,North,356,0.0,2.0,95,0.00,,,0.52,weatherlink.com 1.10,2013-03-06 20:11:00,
2013-03-06 12:26:00,49.1,47.0,30.05,North,356,0.0,1.0,93,0.00,,,0.52,weatherlink.com 1.10,2013-03-06 20:26:00,
2013-03-06 12:41:00,49.1,47.0,30.05,NW,319,0.0,2.0,93,0.00,,,0.52,weatherlink.com 1.10,2013-03-06 20:41:00,
2013-03-06 12:56:00,49.6,47.0,30.04,NNW,328,2.0,4.0,90,0.00,,,0.52,weatherlink.com 1.10,2013-03-06 20:56:00,
2013-03-06 13:11:00,49.9,45.0,30.04,ESE,109,0.0,1.0,83,0.00,,,0.52,weatherlink.com 1.10,2013-03-06 21:11:00,
2013-03-06 13:26:00,50.0,46.0,30.04,North,357,0.0,3.0,87,0.00,,,0.52,weatherlink.com 1.10,2013-03-06 21:26:00,
2013-03-06 13:41:00,50.2,46.0,30.04,NW,320,0.0,4.0,85,0.00,,,0.52,weatherlink.com 1.10,2013-03-06 21:41:00,
2013-03-06 13:56:00,50.5,45.0,30.04,NW,319,0.0,1.0,82,0.00,,,0.52,weatherlink.com 1.10,2013-03-06 21:56:00,
2013-03-06 14:11:00,50.4,46.0,30.04,NW,321,1.0,3.0,85,0.00,,,0.52,weatherlink.com 1.10,2013-03-06 22:11:00,
2013-03-06 14:26:00,50.0,45.0,30.04,NW,321,2.0,2.0,82,0.00,,,0.52,weatherlink.com 1.10,2013-03-06 22:26:00,
2013-03-06 14:41:00,50.0,44.0,30.04,WNW,290,1.0,3.0,81,0.00,,,0.52,weatherlink.com 1.10,2013-03-06 22:41:00,
2013-03-06 14:56:00,49.6,44.0,30.04,NW,321,2.0,3.0,80,0.00,,,0.52,weatherlink.com 1.10,2013-03-06 22:56:00,
2013-03-06 15:11:00,49.5,44.0,30.04,NW,323,0.0,2.0,80,0.00,,,0.52,weatherlink.com 1.10,2013-03-06 23:11:00,
2013-03-06 15:26:00,49.4,44.0,30.04,NNW,335,2.0,4.0,82,0.00,,,0.52,weatherlink.com 1.10,2013-03-06 23:26:00,
2013-03-06 15:41:00,49.3,43.0,30.04,NNW,328,2.0,3.0,79,0.00,,,0.52,weatherlink.com 1.10,2013-03-06 23:41:00,
2013-03-06 15:56:00,49.3,45.0,30.04,NNW,328,0.0,1.0,84,0.00,,,0.52,weatherlink.com 1.10,2013-03-06 23:56:00,
2013-03-06 16:11:00,48.9,44.0,30.04,NNW,329,0.0,2.0,82,0.00,,,0.52,weatherlink.com 1.10,2013-03-07 00:11:00,
2013-03-06 16:26:00,48.8,44.0,30.03,NNW,328,0.0,0.0,82,0.00,,,0.52,weatherlink.com 1.10,2013-03-07 00:26:00,
2013-03-06 16:41:00,48.5,44.0,30.03,NNW,329,0.0,1.0,84,0.00,,,0.52,weatherlink.com 1.10,2013-03-07 00:41:00,
2013-03-06 16:57:00,48.4,44.0,30.03,NNW,328,0.0,1.0,86,0.00,,,0.52,weatherlink.com 1.10,2013-03-07 00:57:00,
2013-03-06 17:12:00,48.1,44.0,30.02,NNW,329,0.0,0.0,86,0.00,,,0.52,weatherlink.com 1.10,2013-03-07 01:12:00,
2013-03-06 17:27:00,47.9,45.0,30.02,NNW,329,0.0,0.0,88,0.00,,,0.52,weatherlink.com 1.10,2013-03-07 01:27:00,
2013-03-06 17:42:00,47.6,44.0,30.02,NNW,329,0.0,0.0,88,0.00,,,0.52,weatherlink.com 1.10,2013-03-07 01:42:00,
2013-03-06 17:57:00,47.1,44.0,30.02,NNW,329,0.0,0.0,88,0.00,,,0.52,weatherlink.com 1.10,2013-03-07 01:57:00,
2013-03-06 18:12:00,46.6,44.0,30.02,NNW,329,0.0,0.0,89,0.00,,,0.52,weatherlink.com 1.10,2013-03-07 02:12:00,
2013-03-06 18:27:00,45.9,43.0,30.02,NNW,328,0.0,0.0,90,0.00,,,0.52,weatherlink.com 1.10,2013-03-07 02:27:00,
2013-03-06 18:42:00,45.1,43.0,30.01,NNW,328,0.0,0.0,91,0.00,,,0.52,weatherlink.com 1.10,2013-03-07 02:42:00,
2013-03-06 18:57:00,44.5,43.0,30.02,NNW,328,0.0,0.0,93,0.00,,,0.52,weatherlink.com 1.10,2013-03-07 02:57:00,
2013-03-06 19:12:00,44.0,42.0,30.02,NNW,328,0.0,0.0,93,0.00,,,0.52,weatherlink.com 1.10,2013-03-07 03:12:00,
2013-03-06 19:27:00,43.4,42.0,30.01,NNW,328,0.0,0.0,93,0.00,,,0.52,weatherlink.com 1.10,2013-03-07 03:27:00,
2013-03-06 19:42:00,43.1,42.0,30.02,NNW,329,0.0,0.0,94,0.00,,,0.52,weatherlink.com 1.10,2013-03-07 03:42:00,
2013-03-06 19:57:00,42.4,41.0,30.02,NNW,328,0.0,0.0,94,0.00,,,0.52,weatherlink.com 1.10,2013-03-07 03:57:00,
2013-03-06 20:12:00,41.9,40.0,30.01,NNW,329,0.0,0.0,94,0.00,,,0.52,weatherlink.com 1.10,2013-03-07 04:12:00,
2013-03-06 20:27:00,41.4,40.0,30.01,NNW,328,0.0,0.0,94,0.00,,,0.52,weatherlink.com 1.10,2013-03-07 04:27:00,
2013-03-06 20:42:00,40.9,39.0,30.01,NNW,328,0.0,0.0,94,0.00,,,0.52,weatherlink.com 1.10,2013-03-07 04:42:00,
2013-03-06 20:57:00,40.6,39.0,30.00,NNW,329,0.0,0.0,95,0.00,,,0.52,weatherlink.com 1.10,2013-03-07 04:57:00,
2013-03-06 21:12:00,40.4,39.0,30.01,NNW,328,0.0,0.0,95,0.00,,,0.52,weatherlink.com 1.10,2013-03-07 05:12:00,
2013-03-06 21:27:00,40.0,39.0,30.01,NNW,329,0.0,0.0,95,0.00,,,0.52,weatherlink.com 1.10,2013-03-07 05:27:00,
2013-03-06 21:42:00,39.6,38.0,30.01,NNW,328,0.0,0.0,95,0.00,,,0.52,weatherlink.com 1.10,2013-03-07 05:42:00,
2013-03-06 21:57:00,39.2,38.0,30.01,NNW,328,0.0,0.0,95,0.00,,,0.52,weatherlink.com 1.10,2013-03-07 05:57:00,
2013-03-06 22:12:00,38.8,38.0,30.00,NNW,328,0.0,0.0,95,0.00,,,0.52,weatherlink.com 1.10,2013-03-07 06:12:00,
2013-03-06 22:27:00,38.5,38.0,30.00,NNW,329,0.0,0.0,96,0.00,,,0.52,weatherlink.com 1.10,2013-03-07 06:27:00,
2013-03-06 22:42:00,38.2,37.0,30.00,NNW,328,0.0,0.0,95,0.00,,,0.52,weatherlink.com 1.10,2013-03-07 06:42:00,
2013-03-06 22:57:00,37.9,37.0,30.00,NNW,328,0.0,0.0,95,0.00,,,0.52,weatherlink.com 1.10,2013-03-07 06:57:00,
2013-03-06 23:12:00,37.5,37.0,30.00,NNW,328,0.0,0.0,96,0.00,,,0.52,weatherlink.com 1.10,2013-03-07 07:12:00,
2013-03-06 23:27:00,37.4,36.0,29.99,NNW,328,0.0,0.0,96,0.00,,,0.52,weatherlink.com 1.10,2013-03-07 07:27:00,
2013-03-06 23:42:00,37.2,36.0,29.99,NNW,329,0.0,0.0,96,0.00,,,0.52,weatherlink.com 1.10,2013-03-07 07:42:00,
2013-03-06 23:57:00,37.0,36.0,29.99,NNW,329,0.0,0.0,96,0.00,,,0.52,weatherlink.com 1.10,2013-03-07 07:57:00,